TimeCST,TemperatureF,Dew PointF,Humidity,Sea Level PressureIn,VisibilityMPH,Wind Direction,Wind SpeedMPH,Gust SpeedMPH,PrecipitationIn,Events,Conditions,WindDirDegrees,DateUTC
12:14 AM,10.4,10.4,100,30.10,0.2,Calm,Calm,-,N/A,Fog,Light Freezing Fog,0,2013-02-27 06:14:00
12:34 AM,12.2,10.4,92,30.10,0.2,Calm,Calm,-,N/A,Fog,Light Freezing Fog,0,2013-02-27 06:34:00
12:53 AM,10.4,8.6,92,30.10,0.2,Calm,Calm,-,N/A,Fog,Light Freezing Fog,0,2013-02-27 06:53:00
1:14 AM,10.4,8.6,92,30.10,0.2,Calm,Calm,-,N/A,Fog,Light Freezing Fog,0,2013-02-27 07:14:00
1:34 AM,10.4,6.8,85,30.10,0.2,Calm,Calm,-,N/A,Fog,Light Freezing Fog,0,2013-02-27 07:34:00
1:53 AM,8.6,6.8,92,30.10,0.2,Calm,Calm,-,N/A,Fog,Light Freezing Fog,0,2013-02-27 07:53:00
2:14 AM,8.6,6.8,92,30.10,4.0,Calm,Calm,-,N/A,,Scattered Clouds,0,2013-02-27 08:14:00
2:34 AM,6.8,5.0,92,30.10,4.0,Calm,Calm,-,N/A,,Clear,0,2013-02-27 08:34:00
2:54 AM,6.8,5.0,92,30.10,4.0,Calm,Calm,-,N/A,,Clear,0,2013-02-27 08:54:00
3:14 AM,6.8,3.2,85,30.09,2.5,Calm,Calm,-,N/A,,Clear,0,2013-02-27 09:14:00
3:34 AM,6.8,5.0,92,30.09,5.0,Calm,Calm,-,N/A,,Clear,0,2013-02-27 09:34:00
3:54 AM,6.8,5.0,92,30.10,5.0,Calm,Calm,-,N/A,,Clear,0,2013-02-27 09:54:00
4:14 AM,5.0,3.2,92,30.10,7.0,Calm,Calm,-,N/A,,Clear,0,2013-02-27 10:14:00
4:34 AM,6.8,3.2,85,30.10,5.0,Calm,Calm,-,N/A,,Clear,0,2013-02-27 10:34:00
4:54 AM,6.8,5.0,92,30.10,4.0,Calm,Calm,-,N/A,,Clear,0,2013-02-27 10:54:00
5:14 AM,6.8,3.2,85,30.10,4.0,NW,3.5,-,N/A,,Clear,320,2013-02-27 11:14:00
5:34 AM,8.6,6.8,92,30.10,5.0,Calm,Calm,-,N/A,,Clear,0,2013-02-27 11:34:00
5:54 AM,8.6,6.8,92,30.11,5.0,Calm,Calm,-,N/A,,Clear,0,2013-02-27 11:54:00
6:13 AM,8.6,6.8,92,30.11,5.0,Calm,Calm,-,N/A,,Clear,0,2013-02-27 12:13:00
6:34 AM,8.6,6.8,92,30.12,7.0,Calm,Calm,-,N/A,,Mostly Cloudy,0,2013-02-27 12:34:00
6:53 AM,8.6,5.0,85,30.12,10.0,Calm,Calm,-,N/A,,Overcast,0,2013-02-27 12:53:00
7:14 AM,8.6,6.8,92,30.12,7.0,NNW,3.5,-,N/A,Snow,Light Snow,330,2013-02-27 13:14:00
7:34 AM,8.6,5.0,85,30.12,10.0,NNW,5.8,-,N/A,,Mostly Cloudy,340,2013-02-27 13:34:00
7:53 AM,8.6,5.0,85,30.13,10.0,NNW,5.8,-,N/A,,Mostly Cloudy,340,2013-02-27 13:53:00
8:14 AM,8.6,6.8,92,30.13,7.0,NNW,5.8,-,N/A,,Mostly Cloudy,340,2013-02-27 14:14:00
8:34 AM,8.6,6.8,92,30.14,7.0,NNW,5.8,-,N/A,,Scattered Clouds,330,2013-02-27 14:34:00
8:53 AM,10.4,6.8,85,30.14,5.0,NNW,6.9,-,N/A,,Mostly Cloudy,340,2013-02-27 14:53:00
9:14 AM,10.4,10.4,100,30.14,4.0,NNW,9.2,-,N/A,,Mostly Cloudy,340,2013-02-27 15:14:00
9:34 AM,12.2,10.4,92,30.14,3.0,NNW,12.7,-,N/A,,Clear,340,2013-02-27 15:34:00
9:53 AM,14.0,12.2,93,30.14,7.0,NNW,13.8,-,N/A,,Clear,340,2013-02-27 15:53:00
10:14 AM,15.8,12.2,86,30.14,5.0,NNW,16.1,-,N/A,,Clear,340,2013-02-27 16:14:00
10:34 AM,15.8,15.8,100,30.14,7.0,NNW,17.3,-,N/A,,Clear,340,2013-02-27 16:34:00
10:53 AM,17.6,15.8,93,30.14,7.0,NNW,19.6,-,N/A,,Clear,340,2013-02-27 16:53:00
11:14 AM,19.4,17.6,93,30.14,10.0,NNW,20.7,26.5,N/A,,Clear,340,2013-02-27 17:14:00
11:34 AM,21.2,19.4,93,30.13,7.0,NNW,20.7,25.3,N/A,,Clear,340,2013-02-27 17:34:00
11:53 AM,21.2,21.2,100,30.13,7.0,NNW,21.9,-,N/A,,Clear,340,2013-02-27 17:53:00
12:14 PM,23.0,21.2,93,30.13,10.0,North,23.0,27.6,N/A,,Clear,350,2013-02-27 18:14:00
12:34 PM,24.8,21.2,86,30.13,10.0,NNW,21.9,27.6,N/A,,Clear,340,2013-02-27 18:34:00
12:54 PM,24.8,23.0,93,30.14,10.0,North,19.6,-,N/A,,Clear,350,2013-02-27 18:54:00
1:14 PM,26.6,24.8,93,30.14,10.0,NNW,23.0,-,N/A,,Clear,340,2013-02-27 19:14:00
1:34 PM,26.6,24.8,93,30.14,10.0,NNW,23.0,-,N/A,,Clear,340,2013-02-27 19:34:00
1:54 PM,26.6,24.8,93,30.14,10.0,North,20.7,27.6,N/A,,Clear,350,2013-02-27 19:54:00
2:34 PM,28.4,24.8,86,30.15,10.0,NNW,19.6,-,N/A,,Clear,340,2013-02-27 20:34:00
2:54 PM,28.4,24.8,86,30.15,10.0,NNW,20.7,-,N/A,,Clear,340,2013-02-27 20:54:00
3:14 PM,28.4,24.8,86,30.15,10.0,NNW,23.0,26.5,N/A,,Clear,340,2013-02-27 21:14:00
3:34 PM,28.4,24.8,86,30.16,10.0,NNW,23.0,26.5,N/A,,Clear,340,2013-02-27 21:34:00
3:54 PM,28.4,24.8,86,30.16,10.0,NNW,21.9,26.5,N/A,,Clear,340,2013-02-27 21:54:00
4:14 PM,28.4,24.8,86,30.16,10.0,NNW,21.9,27.6,N/A,,Clear,340,2013-02-27 22:14:00
4:34 PM,28.4,24.8,86,30.17,10.0,NNW,20.7,25.3,N/A,,Clear,340,2013-02-27 22:34:00
4:54 PM,26.6,23.0,86,30.17,10.0,NNW,19.6,25.3,N/A,,Clear,340,2013-02-27 22:54:00
5:14 PM,26.6,23.0,86,30.18,10.0,NNW,19.6,-,N/A,,Clear,340,2013-02-27 23:14:00
5:34 PM,26.6,21.2,80,3.01,10.0,NNW,18.4,-,N/A,,Clear,340,2013-02-27 23:34:00
5:54 PM,24.8,21.2,86,30.19,10.0,NNW,17.3,-,N/A,,Clear,340,2013-02-27 23:54:00
6:14 PM,24.8,21.2,86,30.19,10.0,NNW,18.4,24.2,N/A,,Clear,340,2013-02-28 00:14:00
6:33 PM,24.8,21.2,86,30.20,10.0,NNW,18.4,-,N/A,,Clear,340,2013-02-28 00:33:00
6:54 PM,24.8,21.2,86,30.21,10.0,North,17.3,-,N/A,,Clear,350,2013-02-28 00:54:00
7:14 PM,24.8,21.2,86,30.21,10.0,NNW,16.1,-,N/A,,Clear,340,2013-02-28 01:14:00
7:33 PM,23.0,19.4,86,30.22,10.0,NNW,17.3,-,N/A,,Clear,340,2013-02-28 01:33:00
7:54 PM,21.2,19.4,93,30.22,10.0,NNW,18.4,-,N/A,,Clear,340,2013-02-28 01:54:00
8:14 PM,21.2,19.4,93,30.22,10.0,NNW,17.3,-,N/A,,Clear,340,2013-02-28 02:14:00
8:33 PM,21.2,17.6,86,30.22,10.0,NNW,16.1,-,N/A,,Clear,340,2013-02-28 02:33:00
8:54 PM,19.4,17.6,93,30.23,10.0,NNW,16.1,-,N/A,,Clear,340,2013-02-28 02:54:00
9:14 PM,19.4,17.6,93,30.23,10.0,NNW,15.0,-,N/A,,Clear,340,2013-02-28 03:14:00
9:33 PM,19.4,17.6,93,30.23,10.0,North,12.7,-,N/A,,Clear,350,2013-02-28 03:33:00
9:54 PM,19.4,17.6,93,30.23,10.0,North,10.4,-,N/A,,Clear,350,2013-02-28 03:54:00
10:14 PM,19.4,17.6,93,30.24,10.0,North,9.2,-,N/A,,Clear,350,2013-02-28 04:14:00
10:33 PM,19.4,17.6,93,30.23,10.0,North,9.2,-,N/A,,Clear,360,2013-02-28 04:33:00
10:54 PM,19.4,15.8,86,30.24,10.0,North,9.2,-,N/A,,Clear,10,2013-02-28 04:54:00
11:14 PM,17.6,15.8,93,30.24,10.0,North,8.1,-,N/A,,Clear,10,2013-02-28 05:14:00
11:34 PM,15.8,14.0,93,30.24,10.0,North,8.1,-,N/A,,Clear,360,2013-02-28 05:34:00